Location: Allison's Woods
(35.8809°N, 80.8140°W)
Time: 03:57:13
(UTC-04:00)

Iridium 39 - Visible Passes

Search period start: 19 April 2015 00:00
Search period end: 29 April 2015 00:00
Orbit: 776 x 779 km, 86.4° (Epoch: 18 April)

Date Brightness Start Highest point End Pass type
(mag) Time Alt. Az. Time Alt. Az. Time Alt. Az.
19 Apr 8.8 00:18:11 10° NW 00:18:55 11° WNW 00:18:55 11° WNW visible
19 Apr 7.1 22:01:47 10° NNE 22:05:18 30° NE 22:05:18 30° NE visible
19 Apr 8.1 23:42:53 10° NNW 23:45:47 22° WNW 23:45:47 22° WNW visible
20 Apr 7.6 21:29:15 10° NE 21:32:11 17° ENE 21:32:11 17° ENE visible
20 Apr 7.2 23:08:41 10° NNW 23:12:41 40° WNW 23:12:41 40° WNW visible
21 Apr 6.1 22:34:57 10° N 22:39:34 70° NNW 22:39:34 70° NNW visible
22 Apr 6.3 22:01:34 10° N 22:06:29 49° E 22:06:29 49° E visible
22 Apr 8.4 23:43:45 10° NW 23:46:58 16° W 23:46:59 16° W visible
23 Apr 7.0 21:28:36 10° NNE 21:32:53 26° E 21:33:25 25° E visible
23 Apr 7.5 23:09:05 10° NNW 23:13:38 30° W 23:13:55 30° W visible
24 Apr 7.8 20:56:33 10° NE 20:58:58 14° ENE 21:00:22 13° E visible
24 Apr 6.4 22:35:05 10° N 22:40:13 58° W 22:40:52 54° WSW visible
25 Apr 5.9 22:01:29 10° N 22:06:43 73° E 22:07:50 54° SSE visible
25 Apr 8.8 23:45:50 10° WNW 23:46:52 10° W 23:47:31 10° W visible
26 Apr 6.6 21:28:15 10° NNE 21:33:05 38° E 21:34:50 29° ESE visible
26 Apr 8.1 23:09:42 10° NW 23:13:35 21° W 23:15:20 17° WSW visible
27 Apr 7.4 20:55:33 10° NNE 20:59:16 20° ENE 21:01:50 15° ESE visible
27 Apr 7.2 22:35:22 10° NNW 22:40:12 39° W 22:42:21 27° SW visible
28 Apr 6.1 22:01:32 10° N 22:06:46 76° W 22:09:23 30° S visible
